Weather History for KAXX - January, 2014

Change the Weather History Date:

Sunday, January 12, 2014

  Actual Average Record
Temperature  
Mean Temperature 27 °F -  
Max Temperature 39 °F - - ()
Min Temperature 15 °F - - ()
Degree Days  
Heating Degree Days 38    
Moisture  
Dew Point 13 °F    
Average Humidity 48    
Maximum Humidity 74    
Minimum Humidity 34    
Precipitation  
Precipitation 0.00 in - - ()
Sea Level Pressure  
Sea Level Pressure 29.89 in    
Wind  
Wind Speed 19 mph (West)    
Max Wind Speed 34 mph    
Max Gust Speed 51 mph    
Visibility 10 miles    
Events      
T = Trace of Precipitation, MM = Missing Value Source: NWS Daily Summary

Daily Weather History Graph

Daily Weather History Graph

Search for Another Location

Airport or City:

Trip Planner

Search our weather history database for the weather conditions in past years. The results will help you decide how hot, cold, wet, or windy it might be!

Date:

Astronomy

Jan. 12, 2014 Rise Set
Actual Time 7:12 AM MST 5:06 PM MST
Civil Twilight 6:44 AM MST 5:34 PM MST
Nautical Twilight 6:12 AM MST 6:06 PM MST
Astronomical Twilight 5:41 AM MST 6:37 PM MST
Moon 2:35 PM MST (1/12) 4:14 AM MST (1/12)
Length of Visible Light 10h 50m
Length of Day
9h 53m
Waxing Gibbous, 90% of the Moon is Illuminated
Jan 12
Waxing Gibbous
Jan 15
Full
Jan 23
Last Quarter
Jan 30
New
Feb 6
First Quarter

Hourly Weather History & Observations

Time (MST) Temp. Windchill Dew Point Humidity Pressure Visibility Wind Dir Wind Speed Gust Speed Precip Events Conditions
12:15 AM 32.0 °F - 18.3 °F 57% 30.00 in 10.0 mi Calm Calm - N/A   Clear
12:35 AM 33.8 °F 25.8 °F 18.7 °F 54% 29.97 in 10.0 mi SSW 10.4 mph - N/A   Clear
12:55 AM 34.9 °F 23.3 °F 19.0 °F 52% 29.97 in 10.0 mi SW 21.9 mph 29.9 mph N/A   Clear
1:15 AM 34.3 °F 23.2 °F 18.9 °F 53% 29.96 in 10.0 mi WSW 19.6 mph 27.6 mph N/A   Clear
1:35 AM 34.2 °F 22.6 °F 19.0 °F 54% 29.95 in 10.0 mi WSW 20.7 mph 33.4 mph N/A   Clear
1:55 AM 33.3 °F 25.1 °F 19.0 °F 56% 29.93 in 10.0 mi WSW 10.4 mph 27.6 mph N/A   Clear
2:15 AM 34.3 °F 23.5 °F 18.5 °F 52% 29.92 in 10.0 mi West 18.4 mph 27.6 mph N/A   Clear
2:35 AM 34.3 °F 22.0 °F 18.5 °F 52% 29.91 in 10.0 mi WSW 24.2 mph 35.7 mph N/A   Clear
2:55 AM 34.3 °F 21.8 °F 18.3 °F 52% 29.88 in 10.0 mi WSW 25.3 mph 39.1 mph N/A   Clear
3:15 AM 34.2 °F 22.1 °F 18.0 °F 52% 29.87 in 10.0 mi West 23.0 mph 40.3 mph N/A   Clear
3:35 AM 34.7 °F 22.8 °F 17.6 °F 50% 29.87 in 10.0 mi West 23.0 mph 39.1 mph N/A   Clear
3:55 AM 34.5 °F 22.3 °F 17.2 °F 49% 29.87 in 10.0 mi WSW 24.2 mph 38.0 mph N/A   Clear
4:15 AM 34.2 °F 21.8 °F 17.2 °F 50% 29.86 in 10.0 mi West 24.2 mph 35.7 mph N/A   Clear
4:35 AM 33.4 °F 21.7 °F 17.6 °F 52% 29.85 in 10.0 mi West 20.7 mph 34.5 mph N/A   Clear
4:55 AM 33.4 °F 20.3 °F 17.6 °F 52% 29.83 in 10.0 mi West 26.5 mph 36.8 mph N/A   Clear
5:15 AM 33.6 °F 21.3 °F 17.6 °F 52% 29.84 in 10.0 mi West 23.0 mph 38.0 mph N/A   Clear
5:35 AM 33.1 °F 19.8 °F 18.0 °F 54% 29.84 in 10.0 mi West 26.5 mph 34.5 mph N/A   Clear
5:55 AM 32.5 °F 19.4 °F 18.1 °F 55% 29.84 in 10.0 mi West 25.3 mph 33.4 mph N/A   Clear
6:15 AM 32.2 °F 17.6 °F 18.0 °F 56% 29.85 in 10.0 mi West 31.1 mph 41.4 mph N/A   Clear
6:35 AM 32.0 °F 18.1 °F 18.0 °F 56% 29.85 in 10.0 mi West 27.6 mph 36.8 mph N/A   Clear
6:55 AM 31.8 °F 19.0 °F 18.1 °F 57% 29.84 in 10.0 mi West 23.0 mph 34.5 mph N/A   Clear
7:15 AM 32.0 °F 18.6 °F 18.1 °F 57% 29.83 in 10.0 mi West 25.3 mph 40.3 mph N/A   Clear
7:35 AM 31.8 °F 17.6 °F 18.1 °F 57% 29.83 in 10.0 mi West 28.8 mph 38.0 mph N/A   Clear
7:55 AM 32.0 °F 18.1 °F 18.1 °F 57% 29.82 in 10.0 mi West 27.6 mph 42.6 mph N/A   Clear
8:15 AM 32.4 °F 18.6 °F 18.1 °F 56% 29.83 in 10.0 mi West 27.6 mph 38.0 mph N/A   Clear
8:35 AM 32.7 °F 19.3 °F 18.0 °F 55% 29.82 in 10.0 mi West 26.5 mph 42.6 mph N/A   Clear
8:55 AM 33.8 °F 20.8 °F 17.6 °F 52% 29.81 in 10.0 mi West 26.5 mph 36.8 mph N/A   Clear
9:15 AM 35.1 °F 22.5 °F 17.6 °F 49% 29.82 in 10.0 mi West 26.5 mph 36.8 mph N/A   Clear
9:35 AM 36.0 °F 22.2 °F 17.6 °F 47% 29.82 in 10.0 mi West 34.5 mph 42.6 mph N/A   Clear
9:55 AM 35.8 °F 24.8 °F 17.6 °F 48% 29.83 in 10.0 mi West 20.7 mph 38.0 mph N/A   Clear
10:15 AM 38.3 °F 27.8 °F 17.2 °F 43% 29.83 in 10.0 mi West 21.9 mph 38.0 mph N/A   Clear
10:35 AM 38.7 °F 29.5 °F 17.8 °F 43% 29.85 in 10.0 mi West 17.3 mph 31.1 mph N/A   Clear
10:55 AM 38.7 °F 27.8 °F 17.6 °F 43% 29.84 in 10.0 mi West 24.2 mph 36.8 mph N/A   Scattered Clouds
11:15 AM 38.3 °F 26.0 °F 18.0 °F 44% 29.83 in 10.0 mi WSW 31.1 mph 44.9 mph N/A   Scattered Clouds
11:35 AM 37.4 °F 24.2 °F 17.6 °F 45% 29.83 in 10.0 mi West 34.5 mph 50.6 mph N/A   Scattered Clouds
11:55 AM 36.5 °F 24.2 °F 17.8 °F 47% 29.81 in 10.0 mi West 27.6 mph 36.8 mph N/A   Scattered Clouds
12:15 PM 35.6 °F 24.8 °F 18.0 °F 49% 29.80 in 10.0 mi West 19.6 mph 36.8 mph N/A   Mostly Cloudy
12:35 PM 35.8 °F 24.5 °F 16.7 °F 46% 29.79 in 10.0 mi West 21.9 mph 40.3 mph N/A   Scattered Clouds
12:55 PM 39.0 °F 26.8 °F 15.1 °F 38% 29.78 in 10.0 mi West 32.2 mph 49.5 mph N/A   Mostly Cloudy
1:15 PM 37.9 °F 26.1 °F 12.0 °F 35% 29.78 in 10.0 mi West 27.6 mph 47.2 mph N/A   Mostly Cloudy
1:35 PM 36.1 °F 23.5 °F 11.8 °F 37% 29.79 in 10.0 mi West 28.8 mph 44.9 mph N/A   Mostly Cloudy
1:55 PM 35.8 °F 23.7 °F 12.0 °F 38% 29.80 in 10.0 mi West 25.3 mph 50.6 mph N/A   Clear
2:15 PM 36.5 °F 24.9 °F 10.9 °F 35% 29.82 in 10.0 mi WSW 24.2 mph 35.7 mph N/A   Mostly Cloudy
2:35 PM 36.5 °F 26.0 °F 11.3 °F 35% 29.83 in 10.0 mi West 19.6 mph 35.7 mph N/A   Mostly Cloudy
2:55 PM 36.1 °F 25.5 °F 10.9 °F 35% 29.83 in 10.0 mi West 19.6 mph 41.4 mph N/A   Mostly Cloudy
3:15 PM 34.5 °F 21.8 °F 10.6 °F 37% 29.84 in 10.0 mi WSW 26.5 mph 49.5 mph N/A   Scattered Clouds
3:35 PM 34.3 °F 21.0 °F 11.8 °F 39% 29.85 in 10.0 mi WSW 28.8 mph 40.3 mph N/A   Scattered Clouds
3:55 PM 33.1 °F 20.9 °F 11.3 °F 40% 29.86 in 10.0 mi West 21.9 mph 41.4 mph N/A   Mostly Cloudy
4:15 PM 32.0 °F 19.2 °F 9.5 °F 39% 29.87 in 10.0 mi West 23.0 mph 34.5 mph N/A   Mostly Cloudy
4:35 PM 32.0 °F 19.2 °F 8.2 °F 37% 29.88 in 10.0 mi West 23.0 mph 32.2 mph N/A   Mostly Cloudy
4:55 PM 30.2 °F 18.5 °F 6.6 °F 37% 29.90 in 10.0 mi West 17.3 mph 27.6 mph N/A   Scattered Clouds
5:15 PM 29.3 °F 17.3 °F 6.3 °F 38% 29.91 in 10.0 mi West 17.3 mph 29.9 mph N/A   Mostly Cloudy
5:35 PM 29.1 °F 14.2 °F 4.3 °F 35% 29.91 in 10.0 mi West 27.6 mph 34.5 mph N/A   Overcast
5:55 PM 28.4 °F 15.8 °F 3.9 °F 35% 29.93 in 10.0 mi West 18.4 mph 33.4 mph N/A   Mostly Cloudy
6:15 PM 27.5 °F 14.6 °F 5.5 °F 39% 29.93 in 10.0 mi West 18.4 mph 25.3 mph N/A   Mostly Cloudy
6:35 PM 27.5 °F 13.5 °F 4.8 °F 38% 29.95 in 10.0 mi West 21.9 mph 31.1 mph N/A   Overcast
6:55 PM 27.0 °F 13.9 °F 3.6 °F 37% 29.96 in 10.0 mi West 18.4 mph 32.2 mph N/A   Overcast
7:15 PM 26.2 °F 15.8 °F 4.1 °F 39% 29.97 in 10.0 mi West 11.5 mph 20.7 mph N/A   Overcast
7:35 PM 24.6 °F 20.3 °F 8.8 °F 51% 29.98 in 10.0 mi NE 3.5 mph - N/A   Scattered Clouds
7:55 PM 21.0 °F 8.6 °F 12.0 °F 68% 29.98 in 10.0 mi NNE 12.7 mph - N/A   Clear
8:15 PM 19.8 °F 11.9 °F 12.4 °F 73% 30.00 in 10.0 mi WNW 5.8 mph - N/A   Scattered Clouds
8:35 PM 20.3 °F - 13.1 °F 74% 30.00 in 10.0 mi Calm Calm - N/A   Mostly Cloudy
8:55 PM 21.7 °F 9.0 °F 11.3 °F 64% 30.00 in 10.0 mi West 13.8 mph - N/A   Overcast
9:15 PM 24.3 °F 11.2 °F 7.3 °F 49% 30.01 in 10.0 mi West 16.1 mph 21.9 mph N/A   Overcast
9:35 PM 23.7 °F 15.6 °F 7.3 °F 50% 30.03 in 10.0 mi NW 6.9 mph - N/A   Overcast
9:55 PM 20.8 °F 12.1 °F 6.8 °F 55% 30.03 in 10.0 mi WNW 6.9 mph - N/A   Scattered Clouds
10:15 PM 21.0 °F 13.4 °F 5.7 °F 52% 30.03 in 10.0 mi WNW 5.8 mph - N/A   Clear
10:35 PM 21.4 °F 12.8 °F 2.5 °F 44% 30.03 in 10.0 mi West 6.9 mph - N/A   Clear
10:55 PM 21.0 °F 12.4 °F 1.4 °F 43% 30.03 in 10.0 mi WSW 6.9 mph 16.1 mph N/A   Clear
11:15 PM 21.6 °F 11.3 °F -3.3 °F 34% 30.04 in 10.0 mi NW 9.2 mph 19.6 mph N/A   Clear
11:35 PM 15.8 °F 6.1 °F 0.9 °F 52% 30.05 in 10.0 mi NE 6.9 mph - N/A   Clear
11:55 PM 17.4 °F 5.4 °F 0.7 °F 48% 30.06 in 10.0 mi North 10.4 mph - N/A   Clear